Location: Clarion
(42.7316°N, 93.7330°W)
Time: 22:29:42
(UTC+00:00)

Cosmos 2285 Rocket - Pass Details

Date: 22 April 2026
Orbit: 971 x 997 km, 74.0° (Epoch: 12 May)

Event Time Altitude Azimuth Distance (km) Brightness Sun altitude
Rises 02:41:47 0° 191° (S) 3,686 6.8 -16.8°
Reaches altitude 10° 02:44:20 10° 189° (S) 2,737 6.1 -17.2°
Maximum altitude 02:50:38 71° 106° (ESE) 1,038 3.9 -18.1°
Drops below altitude 10° 02:56:56 10° 24° (NNE) 2,736 6.5 -19.1°
Sets 02:59:29 0° 23° (NNE) 3,684 7.2 -19.4°
